星链-1468 (STARLINK-1468 )

导读

STARLINK-1468是美国太空探索技术公司星链星座的卫星,于2020年6月13日发射升空。星链项目旨在构建全球卫星互联网系统,这颗卫星是星链早期组网卫星之一,运行在近地轨道,为全球偏远地区、海洋空域提供互联网接入服务,助力提升全球网络覆盖。

Basic Information
目录编号:
45734
目录名称:
STARLINK-1468
国际标识:
2020-038E
轨道中心:
EARTH
卫星名称:
星链-1468
卫星全名:
星链-1468 (STARLINK-1468 )
卫星状态:
已陨落 最后检测时间 2024-12-28
发射日期:
2020-06-13 UTC
国别 :
美国 (US)
星等 :
--
Orbit Information
数据来源 国际轨道数据
星历时间: 2024-12-29T08:24:36+0800
轨道信息已过期531天
半长轴: 6541.032km
偏心率: 0.0011586
轨道倾角: 53.040°
近地点辐角 194.968°
升交点赤经 268.762°
平近点角 253.239°
近地点: 155.318km
远地点: 170.476km
周期: 87.746分钟
每日圈数: 16.410938
Detailed Information
固有亮度:
5
最大亮度:
2.5
卫星平台:
Starlink V1.0
覆盖范围:
全球
运营商:
太空探索技术公司
运营商所在国:
美国
制造商(研发单位):
太空探索技术公司
制造商所在国:
美国
使用方式:
暂无
Satellite Introduction
星链(Starlink)计划是由太空探索技术公司(SpaceX)提出的一个巨型低轨卫星互联网星座项目,计划在2019年至2024年间在太空搭建由约1.2万颗卫星组成的“星链”网络,其中1584颗将部署在地球上空550千米处的近地轨道,并从2020年开始工作。该卫星仍在工作。